Weather History for Big Piney, WY

Change the Weather History Date:

Monday, January 14, 2013

  Actual Average Record
Temperature  
Mean Temperature -18 °F 11 °F  
Max Temperature -5 °F 26 °F 47 °F (2012)
Min Temperature -31 °F -4 °F -31 °F (2013)
Degree Days  
Heating Degree Days 83 54  
Month to date heating degree days 883 756  
Since 1 July heating degree days 4605 5195  
Cooling Degree Days 0 0  
Month to date cooling degree days 0 0  
Year to date cooling degree days 0 0  
Moisture  
Dew Point -22 °F    
Average Humidity 74    
Maximum Humidity 83    
Minimum Humidity 64    
Precipitation  
Precipitation T in 0.01 in 0.32 in (1988)
Month to date precipitation 0.07 0.15  
Year to date precipitation 0.07 0.15  
Sea Level Pressure  
Sea Level Pressure 30.40 in    
Wind  
Wind Speed 2 mph (East)    
Max Wind Speed 10 mph    
Max Gust Speed 13 mph    
Visibility 9 miles    
Events      
T = Trace of Precipitation, MM = Missing Value Source: NWS Daily Summary

Daily Weather History Graph

Daily Weather History Graph

Search for Another Location

Airport:

Trip Planner

Search our weather history database for the weather conditions in past years. The results will help you decide how hot, cold, wet, or windy it might be!

Date:

Astronomy

Jan. 14, 2013 Rise Set
Actual Time 7:47 AM MST 5:11 PM MST
Civil Twilight 7:16 AM MST 5:42 PM MST
Nautical Twilight 6:41 AM MST 6:17 PM MST
Astronomical Twilight 6:08 AM MST 6:51 PM MST
Moon 9:18 AM MST (1/14) 9:06 PM MST (1/14)
Length of Visible Light 10h 26m
Length of Day
9h 23m
Waxing Crescent, 12% of the Moon is Illuminated
Jan 14
Waxing Crescent
Jan 18
First Quarter
Jan 26
Full
Feb 3
Last Quarter
Feb 10
New

Hourly Weather History & Observations

Time (MST) Temp. Windchill Dew Point Humidity Pressure Visibility Wind Dir Wind Speed Gust Speed Precip Events Conditions
12:53 AM -27.0 °F - -31.0 °F 81% 30.44 in 10.0 mi Calm Calm - N/A   Clear
1:53 AM -27.9 °F -39.8 °F -32.1 °F 81% 30.44 in 10.0 mi East 3.5 mph - N/A   Clear
2:53 AM -27.9 °F - -34.1 °F 73% 30.45 in 10.0 mi Calm Calm - N/A   Clear
3:53 AM -25.1 °F - -29.0 °F 82% 30.44 in 10.0 mi Calm Calm - N/A   Partly Cloudy
4:53 AM -20.2 °F - -25.6 °F 76% 29.96 in 6.0 mi Calm Calm - N/A   Haze
5:53 AM -22.0 °F - -27.9 °F 74% 30.45 in 10.0 mi Calm Calm - N/A   Overcast
6:53 AM -26.0 °F -37.5 °F -32.1 °F 73% 30.53 in 10.0 mi SSE 3.5 mph - N/A   Partly Cloudy
7:53 AM -26.0 °F -37.5 °F -29.9 °F 81% 30.61 in 10.0 mi East 3.5 mph - N/A   Clear
8:53 AM -20.9 °F - -27.0 °F 73% 30.59 in 10.0 mi Calm Calm - N/A   Clear
9:45 AM -18.4 °F - -23.8 °F 76% 30.03 in 2.5 mi Calm Calm - N/A   Haze
9:53 AM -18.0 °F - -25.1 °F 70% 30.58 in 1.2 mi Calm Calm - N/A   Haze
10:01 AM -16.6 °F - -20.2 °F 84% 30.04 in 3.0 mi Calm Calm - N/A   Partly Cloudy
11:53 AM -9.4 °F -18.6 °F -18.4 °F 65% 30.03 in 10.0 mi ENE 3.5 mph - N/A   Clear
12:53 PM -9.9 °F -21.5 °F -17.0 °F 71% 30.53 in 10.0 mi East 4.6 mph - N/A   Clear
1:53 PM -8.0 °F - -15.0 °F 71% 30.50 in 10.0 mi Calm Calm - N/A   Clear
2:53 PM -5.8 °F - -14.8 °F 65% 30.00 in 10.0 mi Calm Calm - N/A   Clear
3:53 PM -6.0 °F - -14.1 °F 68% 30.50 in 10.0 mi Calm Calm - N/A   Partly Cloudy
4:53 PM -8.0 °F - -15.0 °F 71% 30.47 in 10.0 mi Calm Calm - N/A   Clear
5:53 PM -9.0 °F -20.4 °F -15.0 °F 75% 30.51 in 10.0 mi East 4.6 mph - N/A   Clear
6:53 PM -9.9 °F - -17.0 °F 71% 30.51 in 10.0 mi Calm Calm - N/A   Clear
7:53 PM -11.9 °F - -17.0 °F 78% 30.52 in 10.0 mi Calm Calm - N/A   Clear
8:53 PM -11.0 °F - -16.1 °F 78% 30.49 in 10.0 mi Calm Calm - N/A   Scattered Clouds
9:53 PM -8.0 °F -16.9 °F -14.1 °F 75% 30.47 in 10.0 mi WSW 3.5 mph - N/A   Clear
10:53 PM -6.0 °F -23.6 °F -13.0 °F 72% 30.45 in 10.0 mi NNW 10.4 mph - N/A   Clear
11:53 PM -11.0 °F -20.4 °F -17.0 °F 75% 30.48 in 10.0 mi WNW 3.5 mph - N/A   Clear